Regional Weather Roundup
Issued by NWS

Home | Current Version | Previous Version | Graphics & Text | Print | Product List | Glossary On
Versions: 1 2 3 4 5 6 7 8 9 10 11 12 13 14 15 16 17 18 19 20 21 22 23 24 25 26 27
000
ASUS45 KBOI 162210
RWRID

IDAHO REGIONAL WEATHER ROUNDUP
NATIONAL WEATHER SERVICE BOISE ID
300 PM MST MON JAN 16 2017

NOTE: "FAIR" INDICATES FEW OR NO CLOUDS BELOW 12000 FEET
WITH NO SIGNIFICANT WEATHER AND/OR OBSTRUCTIONS TO VISIBILITY

IDZ012-014-162300-
SOUTHWEST IDAHO


CITY           SKY/WX    TMP DP  RH WIND       PRES   REMARKS
BOISE          SUNNY     13   6  74 VRB3      30.44S HAZE
CALDWELL       SUNNY     14   3  61 W3        30.49F HAZE
MOUNTAIN HOME  SUNNY     11  11  99 CALM      30.42S
$$

IDZ016-017-162300-
SOUTHCENTRAL IDAHO


CITY           SKY/WX    TMP DP  RH WIND       PRES   REMARKS
BURLEY         SUNNY     20  11  68 N6        30.28F WCI  12
JEROME         SUNNY     13   8  81 N10       30.31F WCI   0
TWIN FALLS     SUNNY     21  14  74 NW5       30.29F HAZE    WCI  15
$$

IDZ019>023-162300-
SOUTHEAST IDAHO


CITY           SKY/WX    TMP DP  RH WIND       PRES   REMARKS
IDAHO FALLS    CLOUDY     3  -2  79 N9        30.30F WCI -12
POCATELLO      CLOUDY    10   3  73 CALM      30.30F
REXBURG        CLOUDY     9   2  73 NE5       30.29S WCI   1
$$

IDZ006-010-011-018-031-032-162300-
CENTRAL IDAHO MOUNTAINS


CITY           SKY/WX    TMP DP  RH WIND       PRES   REMARKS
MCCALL         SUNNY     14   7  73 W5        30.20F WCI   6
HAILEY         MOSUNNY   16   7  67 SE7       30.24F WCI   6
STANLEY          N/A      4  -4  69 CALM      30.23F
SALMON         CLOUDY    -8 -15  71 CALM      30.46F
CHALLIS        SUNNY     -6 -14  68 CALM      30.35S
$$

IDZ002-004-006-007-026-162300-
NORTHERN IDAHO


CITY           SKY/WX    TMP DP  RH WIND       PRES   REMARKS
LEWISTON       SUNNY     15   8  73 W7        30.38F WCI   5
LOWELL           N/A     28  19  69 CALM      30.36F
COEUR D`ALENE  PTSUNNY   24  19  81 N9        30.31S WCI  14
MULLAN PASS    MOSUNNY   26  17  68 VRB3      30.12S
$$




USA.gov is the U.S. government's official web portal to all federal, state and local government web resources and services.